Vorticity
34 30 27 22 21 19 18 19 19 16 14 13 13 11 10 8 7 7 7 7 7 7 8 8 8 8 9 10 9 6 3 1 0 1 4 12 28 35 34 24 11 2 -3 -2 6 16 23 23 13 9 10 16 18 19 19 20 21 21 21 20 20 19 18 16 12 7 1 -5 -8
32 29 28 30 19 17 18 18 20 19 17 15 15 14 13 12 10 9 8 8 9 10 10 10 9 9 9 10 8 5 2 0 0 0 5 17 32 34 28 18 12 9 8 8 11 17 23 26 13 5 1 4 7 8 10 11 12 12 10 8 6 4 2 2 -0 -3 -6 -9 -10
34 26 21 30 19 15 14 13 17 20 21 20 18 17 16 14 13 12 11 11 11 11 12 12 11 11 10 9 7 5 2 0 -1 -2 2 16 29 31 26 20 18 17 15 13 12 14 18 24 18 6 -4 -8 -5 -2 2 6 7 6 4 -0 -5 -9 -10 -10 -10 -10 -9 -6 -3
37 28 21 18 14 12 10 11 15 19 23 24 23 21 18 16 14 13 12 13 13 13 13 13 13 12 12 10 7 4 2 0 -3 -6 -5 6 19 23 20 14 13 11 10 8 8 9 12 17 19 14 4 -7 -10 -10 -7 -3 -0 1 -1 -5 -10 -13 -15 -15 -12 -6 -1 6 10
28 25 22 20 13 10 9 11 14 19 23 25 25 24 22 19 16 14 13 13 14 15 15 14 15 14 13 11 7 4 1 -0 -4 -10 -13 -8 10 18 17 9 3 -0 -1 -0 2 6 10 13 17 18 14 6 -3 -10 -14 -16 -14 -12 -11 -11 -12 -13 -12 -9 -1 7 13 18 20
15 19 22 24 17 13 12 13 15 17 19 22 23 23 23 23 21 18 16 15 16 16 17 17 17 16 15 12 8 4 1 -1 -5 -11 -17 -18 -1 12 19 15 8 3 -0 -1 1 3 7 11 15 18 19 19 14 7 -2 -12 -18 -20 -18 -14 -10 -6 -0 7 15 21 25 26 24
15 18 21 20 13 11 11 12 13 14 15 17 19 20 22 23 23 22 20 19 19 20 20 20 21 20 18 14 9 5 2 -1 -4 -10 -17 -22 -15 -4 6 12 14 16 15 13 11 9 9 10 14 19 24 28 34 36 34 28 19 10 5 3 7 11 16 20 22 23 22 21 20
16 17 16 14 9 5 3 6 9 11 13 15 17 18 20 21 21 22 22 23 24 24 25 25 25 24 21 16 11 7 4 1 -1 -6 -14 -22 -21 -17 -11 -5 2 10 17 23 23 21 20 19 20 23 27 31 38 46 53 59 59 55 48 38 32 28 24 20 16 13 11 11 12
16 14 12 10 7 4 3 4 9 12 13 14 15 15 16 17 20 22 23 26 27 27 28 28 27 26 23 19 13 9 5 4 3 -0 -7 -17 -20 -18 -14 -8 -6 -2 5 17 23 26 26 25 22 20 20 20 22 26 32 40 47 51 51 46 36 26 17 10 6 4 3 3 5
19 16 14 13 13 11 10 10 12 12 11 10 13 15 17 19 23 24 25 26 28 29 30 29 28 27 24 21 16 12 8 7 7 7 3 -6 -12 -12 -7 -1 -1 -2 -1 7 16 19 19 16 13 10 8 7 6 6 7 8 11 16 18 19 14 10 5 2 1 1 1 3 4
18 16 15 14 15 14 13 11 10 9 9 12 16 18 20 21 24 24 23 23 24 27 29 30 30 28 26 23 19 16 14 13 13 13 13 9 3 2 3 7 7 4 2 4 10 11 9 6 4 4 3 3 2 1 -0 -2 -2 -2 -1 -1 -0 0 1 2 3 5 6 6 6
13 12 13 14 16 15 14 11 11 13 14 15 14 17 19 21 20 18 19 22 23 24 24 26 27 28 27 26 24 21 20 19 20 20 21 21 18 15 13 12 12 11 8 7 10 10 7 3 3 4 4 4 3 2 2 2 1 1 1 1 2 4 6 7 8 8 8 7 6
10 10 12 14 14 12 11 12 15 15 13 13 15 17 17 17 11 10 13 20 22 23 24 25 26 26 27 28 26 24 23 23 24 25 26 27 26 24 20 18 17 16 13 12 13 12 9 5 5 5 5 4 3 4 5 7 8 8 9 10 11 12 12 12 11 10 9 8 8
7 9 12 15 13 11 10 11 13 13 13 11 14 16 17 13 3 0 4 14 19 20 20 22 22 22 23 24 25 25 25 25 26 26 26 27 26 25 23 21 20 17 15 13 13 12 9 5 5 4 3 2 3 5 8 11 12 13 14 14 15 16 16 15 14 13 13 13 13
7 9 11 12 12 12 12 12 12 12 13 14 17 19 16 8 -4 -6 -1 8 13 15 16 15 15 15 16 18 21 23 25 25 24 24 23 23 23 23 22 21 18 16 14 13 11 8 5 3 2 2 1 1 4 7 10 14 15 15 15 15 16 16 17 18 19 19 19 18 18
9 12 12 11 12 12 12 10 9 10 12 16 18 17 11 1 -6 -5 -1 4 7 8 8 7 7 8 9 10 13 16 20 22 20 19 18 18 19 20 19 18 16 14 12 11 9 7 4 2 1 0 0 1 4 8 12 16 16 16 15 15 15 17 18 20 21 21 22 22 21
10 13 13 12 13 13 12 9 7 8 10 14 16 12 4 -4 -4 -3 -1 -1 1 1 2 1 1 2 3 3 4 8 13 18 17 16 14 14 14 15 15 14 13 12 11 10 9 7 6 4 3 2 1 3 6 10 14 16 16 15 14 13 14 15 17 18 19 20 20 20 20
7 7 7 12 13 13 12 10 8 8 9 12 12 7 0 -6 -4 -3 -3 -5 -4 -4 -3 -3 -3 -2 -2 -0 1 5 11 18 18 17 14 12 11 11 11 11 11 11 10 10 10 9 8 7 6 5 5 6 9 12 15 16 15 13 11 10 11 12 13 14 15 15 15 15 15
7 5 6 9 11 12 13 13 11 10 9 11 10 6 1 -5 -4 -2 -1 -3 -4 -5 -5 -5 -5 -3 -1 2 3 7 12 19 20 19 17 13 11 10 9 9 10 11 12 13 13 13 13 13 11 10 10 11 13 15 17 17 14 12 9 9 9 9 10 10 10 10 9 9 9
12 11 10 10 12 13 14 14 13 12 12 12 10 8 5 2 4 7 8 6 3 0 -2 -3 -2 0 3 5 7 9 13 19 21 20 17 14 12 11 11 11 13 14 16 18 19 20 20 20 20 19 19 19 19 20 19 18 15 12 10 9 8 7 7 6 6 6 5 5 4
13 14 15 16 17 19 19 17 16 16 15 13 12 12 11 12 15 17 17 14 11 8 5 4 5 6 8 9 9 11 13 16 18 18 16 14 13 12 13 13 15 17 19 20 21 22 22 23 24 24 24 24 23 22 21 19 16 13 11 10 8 7 5 4 4 4 4 4 3
13 14 16 18 20 22 22 20 19 18 16 14 13 14 16 18 20 20 19 17 15 14 13 12 12 13 13 13 13 12 11 12 13 13 13 12 11 10 11 12 13 14 16 16 16 17 17 18 19 19 20 20 20 19 18 17 15 14 12 11 9 8 6 5 5 5 4 5 5
17 17 16 16 17 17 18 17 16 16 14 12 12 14 17 20 21 20 20 19 18 18 17 17 17 18 18 17 15 13 12 10 10 10 8 6 4 4 3 4 5 5 6 6 6 7 7 7 7 8 9 10 10 10 11 11 11 11 11 11 10 9 8 7 7 6 6 6 6
18 18 16 14 12 12 12 12 11 10 9 8 8 10 12 16 18 19 20 20 20 20 20 20 20 20 20 20 18 17 15 13 11 9 6 2 -1 -3 -4 -4 -4 -4 -4 -3 -3 -2 -2 -2 -2 -2 -2 -1 -1 -0 0 2 3 4 5 6 6 6 6 6 6 6 6 6 6
19 16 14 11 9 8 7 7 5 3 1 1 2 3 5 7 10 13 16 17 18 18 19 19 19 20 20 20 20 20 20 18 16 13 10 6 2 -1 -4 -5 -5 -5 -4 -4 -3 -2 -2 -2 -2 -2 -2 -2 -2 -3 -4 -4 -4 -3 -2 -1 -0 1 2 3 4 4 5 6 6
20 16 12 8 5 4 3 2 0 -2 -4 -6 -6 -5 -3 -1 2 6 9 11 12 13 13 13 14 15 16 17 18 19 20 21 20 19 17 14 12 8 6 4 3 3 3 4 4 5 5 5 5 5 5 6 5 4 2 1 -1 -2 -2 -2 -1 -1 0 1 1 2 3 4 5
20 18 14 11 8 6 4 3 0 -2 -4 -7 -10 -11 -11 -8 -4 0 4 7 8 8 9 9 10 10 11 12 12 13 14 16 17 18 18 18 17 16 14 12 11 10 10 9 9 9 9 9 9 10 10 11 11 10 10 8 6 5 4 3 3 3 3 3 2 2 2 2 3
16 18 18 18 16 15 13 11 8 5 2 -1 -6 -10 -12 -11 -7 -4 -0 2 4 6 7 8 8 9 9 9 9 10 10 10 11 12 13 13 14 14 14 13 13 12 12 11 10 10 9 9 9 9 9 10 10 11 11 10 10 9 8 8 7 7 7 6 5 5 4 3 3
10 12 15 16 18 19 20 19 18 16 14 10 5 -0 -5 -8 -7 -6 -4 -3 -0 2 4 6 6 7 8 8 8 8 8 8 8 8 8 8 9 9 10 10 10 10 10 10 9 9 8 8 8 8 8 7 8 8 8 9 9 9 9 8 8 8 7 7 7 7 7 6 5
5 6 7 9 11 13 15 16 17 18 19 18 16 12 7 1 -3 -5 -5 -4 -2 1 3 3 3 4 6 7 7 7 7 7 7 7 7 6 6 6 7 7 7 7 7 7 7 7 6 6 6 6 6 6 6 6 6 6 7 7 7 8 8 7 7 7 7 7 8 8 8
3 2 3 3 4 5 6 8 11 13 15 17 18 18 16 12 8 4 1 -1 0 2 4 5 4 4 5 6 6 6 6 6 6 6 5 5 5 5 5 5 5 5 5 4 4 4 4 4 4 4 4 4 4 4 4 4 5 5 6 6 6 6 6 6 6 6 6 7 7
10 8 7 6 6 5 5 6 6 7 9 11 13 15 16 17 16 14 12 9 7 7 8 9 9 9 9 8 8 7 7 7 7 7 7 6 6 6 6 6 6 6 5 5 5 5 5 5 5 5 5 6 6 6 6 6 6 5 5 5 5 5 5 5 5 5 4 4 5
18 18 17 16 15 14 13 12 12 11 11 11 11 12 13 15 16 17 16 15 13 12 12 12 12 12 12 12 11 10 10 10 9 9 9 9 9 9 9 9 9 9 9 9 9 9 9 9 9 9 10 10 10 10 10 10 10 9 9 8 8 8 7 7 6 6 6 5 5
13 13 14 14 15 15 15 14 14 14 13 13 13 12 12 12 12 11 11 10 9 8 7 7 7 7 8 8 8 8 8 8 8 8 8 9 8 8 8 9 9 9 9 9 9 9 10 10 10 10 10 10 11 11 11 11 11 12 12 11 11 11 10 10 10 9 9 8 8
6 6 6 7 7 7 8 8 8 9 9 9 9 9 8 8 7 7 7 6 6 5 4 2 2 2 2 3 3 4 4 5 5 5 5 5 5 5 5 5 5 5 5 5 6 6 6 6 6 6 6 6 6 6 7 7 8 8 9 9 10 10 10 10 11 11 11 11 10
6 5 5 5 5 5 5 5 5 5 5 5 5 6 5 5 5 5 5 6 6 5 4 4 3 2 2 2 2 2 2 3 3 4 4 4 4 4 4 4 4 4 4 3 3 3 3 3 3 3 3 3 3 3 3 3 4 4 5 6 6 7 7 8 8 9 9 10 10
5 5 5 5 5 5 5 5 5 5 5 4 4 5 5 5 5 5 5 6 6 6 5 5 5 4 3 3 2 2 2 3 3 4 4 4 4 4 4 4 4 4 4 4 4 4 4 4 3 3 3 3 3 3 3 3 3 3 4 4 4 5 5 6 6 6 7 7 7
4 4 4 4 4 4 4 4 5 5 5 4 4 5 5 5 5 5 5 5 5 5 5 5 4 4 4 4 3 3 3 3 3 3 3 3 3 4 4 4 4 4 4 4 4 4 4 4 4 4 4 4 3 3 3 3 3 3 3 4 4 4 4 5 5 5 5 6 6
4 4 4 4 4 4 4 4 4 4 4 5 5 5 5 5 5 5 5 4 4 4 4 4 4 4 4 4 4 3 3 3 3 3 3 3 3 3 3 4 4 4 4 4 4 4 4 4 4 3 3 3 3 3 3 3 3 3 3 3 3 3 3 4 4 4 4 5 5
4 4 4 4 4 4 5 5 5 5 5 5 5 5 5 4 4 4 4 4 4 4 4 4 4 4 4 3 3 3 3 3 3 3 3 3 3 3 3 3 4 4 4 4 4 4 4 4 3 3 3 3 3 3 3 3 3 3 3 3 3 3 3 3 3 4 4 4 4
5 5 5 5 5 5 5 5 5 5 4 4 4 4 4 4 4 4 4 4 4 4 3 3 3 3 3 3 3 3 3 3 3 3 3 3 3 3 3 3 3 3 3 4 4 4 4 4 4 3 3 3 3 3 3 3 3 3 3 3 3 3 3 3 3 3 3 4 4
Height
5609 5615 5621 5626 5632 5637 5639 5638 5639 5642 5644 5647 5650 5654 5657 5661 5664 5667 5669 5671 5674 5676 5678 5680 5682 5684 5687 5689 5691 5693 5694 5696 5698 5699 5699 5699 5699 5700 5700 5699 5700 5702 5703 5704 5706 5707 5710 5713 5715 5716 5716 5715 5716 5716 5716 5716 5717 5718 5718 5719 5719 5719 5719 5720 5721 5723 5724 5725 5726
5610 5616 5621 5626 5632 5634 5636 5640 5641 5642 5643 5645 5648 5651 5655 5658 5661 5664 5666 5669 5671 5673 5675 5677 5679 5681 5684 5686 5688 5689 5691 5693 5694 5695 5696 5697 5697 5697 5698 5699 5698 5699 5700 5702 5703 5704 5706 5709 5712 5714 5714 5713 5714 5714 5714 5714 5714 5715 5715 5715 5715 5715 5716 5717 5718 5719 5721 5722 5723
5608 5613 5619 5625 5627 5629 5632 5634 5634 5636 5639 5641 5645 5648 5652 5655 5659 5661 5664 5665 5667 5669 5672 5674 5676 5678 5680 5683 5685 5687 5688 5689 5690 5692 5693 5694 5694 5695 5696 5696 5697 5697 5698 5699 5699 5701 5702 5704 5707 5709 5710 5710 5711 5711 5711 5711 5711 5711 5711 5711 5711 5712 5712 5713 5714 5716 5717 5718 5719
5610 5615 5618 5619 5623 5625 5627 5628 5630 5633 5636 5639 5642 5645 5649 5652 5655 5658 5660 5662 5665 5667 5669 5671 5673 5675 5677 5679 5682 5684 5685 5686 5687 5688 5689 5689 5690 5691 5693 5694 5695 5695 5695 5696 5697 5698 5699 5700 5702 5704 5706 5707 5707 5707 5707 5707 5708 5708 5708 5708 5708 5709 5709 5710 5711 5713 5714 5714 5715
5613 5614 5615 5617 5620 5622 5623 5625 5628 5631 5634 5637 5640 5644 5647 5650 5653 5655 5658 5659 5662 5664 5666 5669 5670 5672 5674 5677 5679 5680 5682 5683 5684 5685 5686 5686 5687 5687 5688 5690 5692 5693 5694 5695 5695 5696 5697 5698 5699 5700 5701 5702 5702 5702 5703 5703 5704 5705 5705 5706 5707 5707 5707 5708 5709 5711 5712 5713 5713
5612 5612 5613 5615 5617 5619 5621 5624 5627 5629 5632 5635 5639 5642 5645 5649 5651 5654 5656 5657 5659 5661 5663 5666 5668 5670 5672 5674 5676 5677 5678 5679 5680 5682 5683 5684 5685 5686 5686 5686 5687 5688 5690 5692 5693 5694 5694 5695 5696 5697 5697 5697 5697 5698 5698 5699 5700 5701 5703 5704 5704 5705 5706 5707 5707 5707 5708 5709 5709
5608 5609 5610 5613 5615 5617 5619 5622 5625 5628 5631 5635 5638 5641 5644 5647 5650 5652 5654 5655 5657 5659 5661 5663 5664 5667 5669 5672 5673 5674 5675 5676 5677 5679 5679 5680 5681 5682 5683 5684 5684 5684 5685 5687 5689 5690 5691 5692 5693 5693 5693 5693 5694 5694 5695 5696 5696 5697 5699 5700 5702 5703 5704 5704 5704 5704 5704 5704 5704
5606 5607 5609 5612 5615 5617 5619 5622 5625 5629 5632 5634 5638 5641 5644 5646 5649 5650 5652 5653 5655 5657 5659 5660 5662 5664 5666 5668 5670 5671 5673 5674 5675 5676 5676 5677 5678 5679 5679 5680 5681 5682 5682 5683 5684 5685 5687 5688 5689 5689 5689 5689 5689 5690 5691 5691 5692 5693 5694 5697 5699 5699 5700 5700 5700 5700 5701 5701 5701
5607 5609 5611 5614 5616 5619 5621 5624 5626 5629 5632 5634 5638 5640 5643 5645 5647 5649 5650 5651 5653 5654 5656 5658 5660 5661 5663 5665 5667 5668 5670 5672 5673 5674 5674 5675 5675 5676 5677 5678 5679 5679 5680 5680 5681 5681 5682 5684 5685 5685 5685 5686 5686 5687 5687 5687 5688 5689 5690 5692 5694 5694 5694 5695 5695 5696 5696 5697 5698
5608 5610 5612 5614 5617 5619 5622 5624 5627 5629 5632 5635 5637 5640 5642 5644 5645 5647 5648 5649 5651 5652 5654 5656 5658 5659 5661 5663 5664 5666 5667 5668 5669 5671 5672 5673 5673 5674 5674 5676 5677 5677 5678 5678 5679 5679 5679 5680 5680 5681 5681 5682 5683 5684 5684 5684 5684 5685 5686 5687 5688 5689 5689 5690 5691 5691 5692 5692 5693
5609 5611 5612 5614 5616 5619 5621 5624 5627 5630 5633 5634 5636 5638 5640 5641 5644 5645 5647 5648 5649 5651 5652 5654 5655 5657 5659 5660 5662 5663 5664 5665 5666 5668 5669 5669 5670 5671 5672 5673 5674 5676 5676 5676 5677 5676 5676 5676 5676 5677 5677 5678 5679 5680 5680 5681 5682 5682 5683 5683 5684 5685 5686 5687 5687 5688 5688 5688 5689
5610 5611 5612 5614 5615 5618 5621 5625 5628 5630 5631 5632 5634 5637 5639 5640 5642 5644 5645 5646 5648 5649 5650 5651 5653 5655 5656 5658 5659 5661 5662 5663 5664 5665 5666 5667 5667 5667 5668 5669 5670 5671 5673 5674 5674 5673 5673 5673 5673 5674 5674 5675 5676 5676 5677 5678 5679 5679 5680 5680 5681 5682 5682 5683 5683 5683 5683 5684 5684
5610 5611 5612 5614 5615 5619 5623 5625 5627 5628 5629 5630 5633 5635 5637 5638 5640 5642 5644 5644 5645 5646 5648 5649 5651 5652 5654 5655 5657 5658 5660 5661 5662 5663 5664 5665 5665 5665 5666 5666 5666 5667 5668 5669 5669 5669 5670 5670 5671 5672 5672 5672 5673 5673 5674 5674 5675 5676 5677 5677 5677 5677 5678 5678 5678 5679 5679 5680 5680
5610 5611 5612 5614 5616 5619 5622 5624 5624 5626 5628 5629 5631 5634 5635 5637 5639 5640 5641 5642 5643 5644 5645 5646 5648 5649 5651 5652 5653 5654 5655 5657 5658 5659 5660 5661 5661 5662 5662 5663 5663 5664 5664 5665 5665 5666 5666 5667 5668 5669 5670 5670 5670 5670 5670 5670 5671 5672 5673 5673 5673 5673 5674 5674 5674 5675 5676 5677 5677
5610 5611 5612 5614 5617 5619 5620 5621 5623 5624 5626 5627 5629 5632 5634 5635 5637 5638 5639 5639 5640 5641 5643 5644 5645 5647 5648 5649 5651 5652 5653 5654 5654 5655 5655 5656 5656 5657 5658 5659 5660 5661 5662 5662 5663 5663 5663 5663 5664 5665 5666 5667 5667 5667 5667 5667 5668 5668 5669 5669 5669 5669 5670 5670 5671 5672 5673 5673 5673
5610 5612 5613 5614 5616 5618 5619 5620 5622 5623 5624 5626 5628 5630 5632 5634 5635 5636 5636 5637 5638 5639 5640 5641 5643 5644 5645 5647 5648 5649 5651 5652 5653 5653 5654 5653 5654 5654 5654 5655 5657 5658 5659 5659 5660 5660 5661 5661 5661 5661 5662 5662 5663 5664 5664 5664 5664 5665 5665 5665 5665 5666 5666 5667 5668 5668 5668 5669 5669
5612 5613 5614 5615 5616 5617 5619 5620 5621 5623 5624 5625 5627 5628 5630 5631 5632 5634 5634 5635 5636 5637 5638 5639 5640 5642 5643 5644 5645 5646 5648 5649 5649 5650 5650 5650 5651 5651 5651 5652 5653 5654 5654 5655 5656 5657 5658 5659 5659 5659 5659 5659 5659 5660 5660 5661 5661 5661 5662 5662 5663 5663 5663 5664 5664 5664 5665 5665 5665
5613 5614 5614 5615 5616 5618 5619 5620 5621 5622 5624 5625 5626 5628 5629 5629 5630 5631 5632 5633 5634 5635 5636 5637 5639 5639 5641 5642 5643 5644 5645 5646 5646 5647 5647 5647 5648 5648 5649 5649 5649 5650 5650 5651 5652 5653 5654 5654 5655 5656 5656 5657 5657 5657 5657 5658 5658 5658 5658 5659 5659 5660 5660 5661 5661 5661 5661 5662 5662
5612 5613 5614 5615 5616 5618 5619 5620 5621 5623 5624 5625 5626 5627 5628 5628 5629 5630 5631 5632 5633 5634 5634 5635 5637 5638 5639 5639 5640 5641 5642 5643 5644 5644 5644 5644 5644 5645 5645 5646 5646 5647 5648 5648 5648 5649 5649 5650 5651 5652 5652 5653 5654 5654 5654 5655 5655 5655 5655 5655 5656 5657 5657 5658 5658 5659 5659 5659 5659
5613 5614 5614 5615 5616 5618 5619 5620 5621 5622 5624 5624 5626 5627 5627 5627 5628 5628 5629 5630 5631 5632 5633 5634 5634 5635 5636 5637 5638 5639 5640 5641 5641 5641 5642 5642 5642 5642 5642 5643 5643 5644 5644 5645 5645 5646 5646 5647 5647 5648 5648 5649 5650 5650 5651 5652 5652 5653 5653 5653 5653 5654 5654 5654 5655 5655 5656 5656 5656
5613 5614 5614 5615 5616 5617 5618 5619 5621 5622 5623 5624 5625 5626 5626 5626 5626 5627 5627 5628 5629 5630 5631 5632 5632 5633 5634 5635 5636 5637 5638 5638 5639 5639 5639 5639 5639 5640 5640 5640 5641 5641 5641 5642 5642 5643 5643 5644 5644 5644 5645 5645 5646 5647 5647 5648 5649 5649 5649 5650 5650 5650 5651 5651 5651 5651 5652 5652 5653
5613 5614 5615 5615 5616 5618 5618 5619 5620 5621 5623 5624 5624 5624 5625 5625 5625 5625 5626 5626 5627 5628 5629 5629 5630 5631 5632 5633 5634 5634 5635 5636 5636 5637 5637 5637 5637 5638 5638 5638 5638 5639 5639 5639 5639 5640 5640 5641 5641 5641 5642 5642 5643 5643 5644 5644 5644 5645 5646 5646 5646 5647 5647 5647 5648 5648 5648 5648 5648
5614 5614 5615 5616 5617 5618 5619 5619 5620 5621 5622 5623 5623 5624 5624 5624 5624 5624 5624 5625 5625 5626 5627 5627 5628 5629 5629 5630 5631 5632 5632 5633 5634 5634 5635 5635 5635 5635 5635 5636 5636 5636 5636 5637 5637 5637 5638 5638 5639 5639 5639 5639 5639 5640 5640 5641 5641 5641 5642 5642 5642 5643 5643 5643 5644 5644 5644 5644 5644
5613 5614 5614 5615 5616 5617 5618 5619 5620 5621 5621 5622 5622 5622 5623 5623 5623 5624 5624 5624 5624 5624 5625 5626 5626 5627 5628 5628 5629 5629 5630 5630 5631 5632 5632 5633 5633 5633 5633 5633 5633 5634 5634 5634 5634 5635 5635 5636 5636 5636 5636 5637 5637 5637 5637 5638 5638 5638 5639 5639 5639 5639 5639 5639 5639 5640 5640 5641 5641
5613 5614 5614 5615 5616 5616 5617 5619 5619 5620 5620 5621 5621 5621 5622 5622 5622 5623 5623 5623 5623 5624 5624 5624 5625 5625 5626 5626 5626 5627 5628 5628 5629 5629 5629 5630 5630 5630 5630 5630 5630 5631 5631 5631 5632 5632 5632 5633 5633 5633 5634 5634 5634 5634 5634 5634 5634 5635 5635 5635 5635 5635 5635 5635 5635 5636 5636 5636 5636
5612 5613 5614 5615 5615 5616 5617 5618 5618 5619 5619 5620 5620 5620 5620 5620 5621 5621 5622 5622 5622 5622 5622 5623 5623 5624 5624 5624 5624 5625 5625 5626 5626 5626 5627 5627 5627 5627 5628 5628 5628 5628 5628 5628 5628 5629 5629 5629 5629 5630 5630 5630 5630 5630 5630 5630 5631 5631 5631 5631 5631 5631 5631 5631 5631 5631 5631 5631 5632
5612 5613 5614 5614 5615 5615 5616 5617 5617 5618 5618 5619 5619 5619 5619 5619 5619 5620 5620 5620 5620 5621 5621 5621 5621 5622 5622 5622 5622 5623 5623 5623 5623 5624 5624 5624 5624 5624 5624 5624 5624 5624 5624 5625 5625 5625 5625 5625 5626 5626 5626 5626 5626 5626 5626 5626 5626 5626 5626 5626 5626 5626 5626 5626 5626 5626 5626 5627 5627
5612 5612 5613 5613 5614 5614 5615 5615 5616 5616 5617 5617 5618 5618 5618 5618 5618 5618 5619 5619 5619 5619 5619 5619 5619 5619 5619 5620 5620 5620 5620 5620 5620 5620 5620 5621 5621 5621 5621 5621 5621 5621 5621 5621 5621 5621 5621 5621 5621 5622 5622 5621 5621 5622 5622 5621 5621 5621 5621 5621 5621 5621 5621 5621 5621 5621 5621 5621 5621
5612 5612 5612 5613 5613 5613 5614 5614 5614 5615 5615 5616 5616 5616 5616 5616 5616 5616 5617 5617 5617 5617 5617 5617 5617 5617 5618 5618 5618 5617 5617 5617 5617 5617 5617 5617 5617 5617 5617 5617 5617 5617 5617 5617 5617 5617 5617 5617 5617 5617 5617 5617 5617 5617 5616 5616 5616 5616 5616 5616 5616 5616 5616 5616 5616 5616 5616 5616 5616
5611 5612 5612 5612 5612 5613 5613 5613 5613 5613 5614 5614 5614 5614 5615 5615 5615 5614 5614 5615 5615 5615 5615 5615 5615 5615 5615 5615 5615 5615 5615 5614 5614 5614 5614 5614 5614 5614 5614 5614 5614 5613 5613 5613 5613 5613 5613 5613 5612 5612 5612 5612 5612 5611 5611 5611 5611 5611 5611 5611 5611 5611 5611 5611 5611 5611 5611 5610 5610
5611 5611 5611 5611 5611 5612 5612 5612 5612 5612 5612 5612 5612 5613 5613 5613 5613 5613 5613 5613 5613 5613 5613 5613 5613 5613 5613 5613 5612 5612 5612 5612 5611 5611 5611 5611 5610 5610 5610 5610 5610 5609 5609 5609 5609 5608 5608 5608 5608 5607 5607 5607 5606 5606 5606 5606 5606 5605 5605 5605 5605 5605 5605 5605 5605 5605 5605 5604 5605
5610 5610 5610 5611 5611 5611 5611 5610 5610 5610 5610 5610 5611 5611 5611 5611 5611 5611 5611 5611 5610 5610 5610 5610 5609 5609 5609 5609 5609 5609 5609 5609 5608 5608 5608 5607 5607 5606 5606 5606 5606 5605 5605 5605 5604 5604 5604 5603 5603 5602 5602 5602 5601 5601 5600 5600 5600 5600 5599 5599 5599 5599 5599 5599 5599 5599 5599 5599 5599
5609 5609 5610 5610 5610 5610 5610 5609 5609 5609 5609 5609 5609 5609 5609 5609 5609 5609 5609 5609 5608 5608 5608 5607 5607 5607 5607 5607 5606 5606 5606 5605 5605 5605 5604 5604 5603 5603 5602 5602 5602 5601 5601 5600 5600 5599 5599 5599 5598 5598 5597 5597 5596 5596 5595 5595 5594 5594 5594 5594 5593 5593 5593 5593 5593 5592 5592 5592 5592
5609 5609 5609 5609 5609 5609 5609 5609 5609 5608 5608 5608 5608 5608 5607 5607 5607 5607 5606 5606 5606 5605 5605 5605 5604 5604 5604 5604 5604 5603 5603 5602 5602 5601 5601 5600 5600 5599 5599 5598 5598 5597 5597 5596 5595 5595 5594 5594 5593 5593 5592 5592 5591 5591 5590 5590 5589 5589 5589 5588 5587 5587 5587 5586 5586 5586 5586 5586 5586
5607 5608 5608 5608 5608 5607 5607 5607 5607 5607 5607 5607 5607 5606 5606 5605 5605 5605 5604 5604 5603 5603 5602 5602 5601 5601 5600 5600 5600 5600 5599 5599 5599 5598 5597 5597 5596 5595 5594 5594 5593 5593 5592 5591 5591 5590 5589 5589 5588 5588 5588 5587 5587 5586 5585 5585 5584 5584 5584 5583 5582 5582 5581 5581 5580 5580 5580 5580 5579
5606 5606 5606 5606 5606 5606 5606 5605 5605 5605 5605 5605 5604 5604 5604 5604 5603 5603 5602 5601 5601 5600 5600 5599 5598 5598 5597 5596 5596 5595 5595 5594 5594 5593 5593 5592 5591 5591 5590 5589 5588 5588 5587 5586 5585 5585 5584 5583 5583 5582 5582 5581 5581 5580 5580 5579 5579 5579 5578 5577 5577 5576 5575 5575 5575 5574 5574 5574 5573
5604 5604 5604 5604 5604 5604 5604 5604 5603 5603 5603 5603 5602 5602 5602 5601 5601 5600 5599 5599 5599 5598 5597 5596 5595 5595 5594 5593 5592 5591 5590 5589 5589 5588 5587 5587 5586 5585 5584 5583 5583 5582 5581 5580 5579 5579 5578 5577 5576 5576 5575 5575 5574 5574 5574 5573 5573 5572 5571 5571 5570 5570 5569 5569 5569 5568 5568 5568 5567
5602 5602 5602 5602 5602 5601 5601 5601 5601 5600 5600 5600 5599 5599 5599 5598 5598 5597 5597 5596 5596 5595 5594 5594 5593 5592 5591 5590 5589 5587 5586 5585 5584 5583 5582 5581 5581 5580 5579 5578 5577 5576 5575 5574 5573 5572 5571 5570 5569 5569 5568 5568 5567 5567 5567 5566 5565 5565 5564 5564 5563 5563 5562 5562 5561 5561 5561 5560 5560
5600 5600 5599 5599 5599 5599 5599 5598 5598 5598 5597 5597 5596 5596 5595 5595 5594 5594 5593 5593 5592 5591 5591 5590 5589 5588 5587 5586 5585 5584 5582 5581 5580 5578 5577 5576 5575 5574 5573 5572 5571 5570 5569 5568 5567 5566 5564 5564 5563 5562 5561 5561 5560 5560 5559 5559 5558 5557 5557 5556 5555 5555 5554 5554 5554 5554 5553 5553 5552
5599 5598 5598 5598 5597 5597 5597 5596 5596 5595 5595 5594 5594 5593 5592 5592 5591 5590 5589 5589 5588 5587 5587 5586 5585 5584 5583 5582 5580 5579 5578 5577 5575 5574 5572 5570 5569 5568 5567 5565 5564 5563 5562 5561 5560 5559 5557 5556 5555 5555 5554 5554 5553 5553 5552 5552 5551 5550 5549 5548 5548 5547 5546 5546 5546 5545 5545 5544 5544
5597 5597 5596 5596 5596 5595 5595 5594 5594 5593 5593 5592 5592 5591 5590 5589 5589 5588 5587 5586 5585 5584 5584 5583 5581 5580 5579 5578 5577 5575 5574 5573 5571 5570 5568 5566 5565 5563 5562 5560 5559 5557 5555 5554 5552 5551 5549 5548 5547 5546 5546 5545 5545 5544 5544 5544 5543 5542 5541 5540 5540 5539 5539 5538 5538 5537 5537 5536 5536